Regional Weather Roundup
Issued by NWS

Home | Current Version | Previous Version | Text Only | Print | Product List | Glossary Off
Versions: 1 2 3 4 5 6 7 8 9 10 11 12 13 14 15 16 17 18 19 20 21 22 23 24 25 26 27 28 29 30 31 32 33 34 35 36 37 38 39 40 41 42 43 44 45 46 47 48 49 50

000
ASUS43 KFSD 300910
RWRSD

WEATHER ROUNDUP FOR SOUTH DAKOTA
NATIONAL WEATHER SERVICE SIOUX FALLS SD
400 AM CDT TUE SEP 30 2014

NOTE: "FAIR" INDICATES FEW OR NO CLOUDS BELOW 12,000 FEET WITH NO
SIGNIFICANT WEATHER AND/OR OBSTRUCTIONS TO VISIBILITY.


SDZ001>005-009-010-012>017-301000-
NORTHWEST AND NORTH CENTRAL SOUTH DAKOTA

CITY           SKY/WX    TMP DP  RH WIND       PRES   REMARKS
BUFFALO          N/A     53  51  93 NE12      29.65F
FAITH            N/A     57  56  96 E15G22    29.69F
MOBRIDGE       CLOUDY    56  51  84 SE16G28   29.76F
$$

SDZ012>016-024>037-041>051-057-063-072>074-301000-
SOUTHWEST AND SOUTH CENTRAL SOUTH DAKOTA

CITY           SKY/WX    TMP DP  RH WIND       PRES   REMARKS
RAPID CTY ARPT CLOUDY    53  52  96 N15       29.62F
PIERRE         LGT RAIN  59  56  89 E22G29    29.71F
CUSTER         LGT RAIN  50  47  89 E13G22    29.66F
ELLSWORTH AFB  CLOUDY    54  54 100 N17       29.63  FOG
PHILIP         LGT RAIN  63  57  81 SE18G30   29.62F
PINE RIDGE     MOCLDY    57  54  89 E16       29.53F
WINNER         CLOUDY    64  59  83 SE23      29.70F
$$

SDZ004>011-016>023-039-040-301000-
NORTHEAST SOUTH DAKOTA

CITY           SKY/WX    TMP DP  RH WIND       PRES   REMARKS
ABERDEEN       CLOUDY    53  48  83 E7        29.88F
WATERTOWN      CLOUDY    49  45  86 SE12      29.94F
SISSETON         N/A     47  45  93 SE12      29.97F
$$

SDZ017-020-022-023-036>040-048>070-301000-
SOUTHEAST SOUTH DAKOTA

CITY           SKY/WX    TMP DP  RH WIND       PRES   REMARKS
SIOUX FALLS    MOCLDY    53  49  86 E14       29.92F
HURON          MOCLDY    54  50  86 SE12G20   29.85F
CHAMBERLAIN    CLOUDY    58  56  92 E16G23    29.76F
MITCHELL       CLOUDY    55  52  89 SE15G24   29.85F
YANKTON        CLOUDY    59  55  88 E10G18    29.87F
$$

ABBREVIATIONS USED IN REMARKS
   TC - TEMPERATURE IN CELSIUS
  WCI - WIND CHILL INDEX
   HX - HEAT INDEX
  VSB - VISIBILITY



USA.gov is the U.S. government's official web portal to all federal, state and local government web resources and services.